TimeCST,TemperatureF,Dew PointF,Humidity,Sea Level PressureIn,VisibilityMPH,Wind Direction,Wind SpeedMPH,Gust SpeedMPH,PrecipitationIn,Events,Conditions,WindDirDegrees,DateUTC
12:53 AM,17.1,7.0,65,30.50,10.0,NNE,9.2,-,N/A,,Clear,20,2014-01-21 06:53:00
1:53 AM,14.0,5.0,67,30.51,10.0,NNE,5.8,-,N/A,,Clear,30,2014-01-21 07:53:00
2:53 AM,10.9,3.0,70,30.53,10.0,Calm,Calm,-,N/A,,Clear,0,2014-01-21 08:53:00
3:53 AM,7.0,1.0,77,30.54,10.0,North,4.6,-,N/A,,Clear,10,2014-01-21 09:53:00
4:53 AM,6.1,-0.0,76,30.54,10.0,North,3.5,-,N/A,,Clear,10,2014-01-21 10:53:00
5:53 AM,3.9,-0.9,80,30.53,10.0,Calm,Calm,-,N/A,,Clear,0,2014-01-21 11:53:00
6:53 AM,6.1,-0.0,76,30.51,10.0,NE,3.5,-,N/A,,Clear,50,2014-01-21 12:53:00
7:53 AM,5.0,-0.0,80,30.48,10.0,SSW,4.6,-,N/A,,Clear,200,2014-01-21 13:53:00
8:53 AM,9.0,-0.0,67,30.45,10.0,South,5.8,-,N/A,,Clear,180,2014-01-21 14:53:00
9:53 AM,15.1,1.9,56,30.44,10.0,SSW,8.1,-,N/A,,Clear,200,2014-01-21 15:53:00
10:53 AM,19.9,3.9,50,30.38,-9999.0,South,12.7,-,N/A,,Clear,190,2014-01-21 16:53:00
11:53 AM,24.1,7.0,48,30.33,10.0,South,13.8,-,N/A,,Unknown,190,2014-01-21 17:53:00
12:53 PM,30.0,9.0,41,30.25,10.0,North,-9999.0,-,N/A,,Clear,0,2014-01-21 18:53:00
1:53 PM,35.1,10.9,37,30.19,10.0,SSW,13.8,19.6,N/A,,Clear,200,2014-01-21 19:53:00
2:53 PM,42.1,15.1,34,30.12,10.0,SSW,12.7,-,N/A,,Clear,210,2014-01-21 20:53:00
3:53 PM,46.9,16.0,29,30.10,10.0,SW,11.5,-,N/A,,Clear,230,2014-01-21 21:53:00
4:53 PM,48.9,16.0,27,30.08,10.0,SSW,6.9,-,N/A,,Clear,210,2014-01-21 22:53:00
5:53 PM,44.1,16.0,32,30.09,10.0,SW,3.5,-,N/A,,Clear,230,2014-01-21 23:53:00
6:53 PM,33.1,12.9,43,30.12,10.0,NW,3.5,-,N/A,,Clear,310,2014-01-22 00:53:00
7:53 PM,28.9,12.9,51,30.14,10.0,WNW,5.8,-,N/A,,Clear,290,2014-01-22 01:53:00
8:53 PM,36.0,14.0,41,30.14,10.0,NNW,11.5,-,N/A,,Clear,330,2014-01-22 02:53:00
9:53 PM,33.1,12.9,43,30.16,10.0,North,11.5,-,N/A,,Clear,350,2014-01-22 03:53:00
10:53 PM,33.1,17.1,52,30.18,10.0,North,11.5,-,N/A,,Clear,350,2014-01-22 04:53:00
11:53 PM,28.9,17.1,61,30.18,10.0,NNW,8.1,-,N/A,,Clear,340,2014-01-22 05:53:00